Eveleth, MN

4:56 AM CDT on May 21, 2018 (GMT -0500)
Eveleth-Virginia Municipal

Weather History for KEVM - April, 2013

Change the Weather History Date:

Sunday, April 28, 2013

  Actual Average Record
Temperature  
Mean Temperature 52 °F -  
Max Temperature 65 °F 58 °F 80 °F (2004)
Min Temperature 39 °F 30 °F 23 °F (2018)
Degree Days  
Heating Degree Days 13    
Growing Degree Days 2 (Base 50)    
Moisture  
Dew Point 40 °F    
Average Humidity 64    
Maximum Humidity 87    
Minimum Humidity 45    
Precipitation  
Precipitation 0.00 in - - ()
Sea Level Pressure  
Sea Level Pressure 29.74 in    
Wind  
Wind Speed 5 mph (SSW)    
Max Wind Speed 18 mph    
Max Gust Speed 28 mph    
Visibility 10 miles    
Events      
Averages and records for this station are not official NWS values.
T = Trace of Precipitation, MM = Missing Value Source: NWS Daily Summary

Daily Weather History Graph

Daily Weather History Graph

Search for Another Location

Airport or City:

Astronomy

Apr. 28, 2013 Rise Set
Actual Time 5:57 AM CDT 8:17 PM CDT
Civil Twilight 5:24 AM CDT 8:51 PM CDT
Nautical Twilight 4:41 AM CDT 9:34 PM CDT
Astronomical Twilight 3:53 AM CDT 10:22 PM CDT
Moon 11:56 PM CDT (4/28) 8:07 AM CDT (4/28)
Length of Visible Light 15h 27m
Length of Day
14h 20m
Waning Gibbous, 88% of the Moon is Illuminated
Apr 28
Waning Gibbous
May 2
Last Quarter
May 9
New
May 17
First Quarter
May 24
Full

Hourly Weather History & Observations

Time (CDT) Temp. Windchill Dew Point Humidity Pressure Visibility Wind Dir Wind Speed Gust Speed Precip Events Conditions
12:09 AM 42.4 °F - 31.1 °F 64% 29.85 in 10.0 mi Calm Calm - N/A   Scattered Clouds
12:30 AM 42.4 °F - 31.6 °F 66% 29.84 in 10.0 mi Calm Calm - N/A   Scattered Clouds
12:50 AM 41.0 °F - 31.3 °F 68% 29.83 in 10.0 mi Calm Calm - N/A   Mostly Cloudy
1:09 AM 42.4 °F - 31.6 °F 66% 29.83 in 10.0 mi Calm Calm - N/A   Overcast
1:30 AM 41.7 °F - 32.0 °F 68% 29.83 in 10.0 mi Calm Calm - N/A   Overcast
1:49 AM 40.1 °F - 31.6 °F 72% 29.83 in 10.0 mi Calm Calm - N/A   Scattered Clouds
2:09 AM 40.1 °F - 31.6 °F 72% 29.82 in 10.0 mi Calm Calm - N/A   Clear
2:30 AM 39.7 °F - 31.5 °F 72% 29.81 in 10.0 mi Calm Calm - N/A   Mostly Cloudy
2:50 AM 43.7 °F 42.1 °F 34.0 °F 69% 29.80 in 10.0 mi South 3.5 mph - N/A   Mostly Cloudy
3:09 AM 40.1 °F - 32.0 °F 73% 29.80 in 10.0 mi Calm Calm - N/A   Scattered Clouds
3:30 AM 39.6 °F - 32.9 °F 77% 29.79 in 10.0 mi Calm Calm - N/A   Scattered Clouds
3:50 AM 42.6 °F 39.9 °F 36.5 °F 79% 29.79 in 10.0 mi SSW 4.6 mph - N/A   Scattered Clouds
4:09 AM 49.1 °F - 40.8 °F 73% 29.79 in 10.0 mi SSW 5.8 mph - N/A   Scattered Clouds
4:30 AM 50.0 °F - 41.2 °F 72% 29.80 in 10.0 mi SW 6.9 mph - N/A   Mostly Cloudy
4:50 AM 50.4 °F - 41.4 °F 71% 29.80 in 10.0 mi SSW 6.9 mph - N/A   Scattered Clouds
5:09 AM 50.0 °F - 41.9 °F 74% 29.79 in 10.0 mi South 8.1 mph - N/A   Mostly Cloudy
5:30 AM 50.0 °F - 42.4 °F 75% 29.79 in 10.0 mi South 9.2 mph - N/A   Overcast
6:09 AM 49.8 °F - 42.6 °F 76% 29.78 in 10.0 mi Calm Calm - N/A   Scattered Clouds
6:30 AM 49.6 °F - 42.8 °F 77% 29.77 in 10.0 mi SSE 6.9 mph - N/A   Mostly Cloudy
6:50 AM 49.8 °F - 43.2 °F 78% 29.76 in 10.0 mi SSE 5.8 mph - N/A   Mostly Cloudy
7:09 AM 50.0 °F - 42.8 °F 76% 29.76 in 10.0 mi South 4.6 mph - N/A   Mostly Cloudy
7:30 AM 52.0 °F - 44.2 °F 75% 29.77 in 10.0 mi South 3.5 mph - N/A   Overcast
8:09 AM 52.5 °F - 44.6 °F 74% 29.77 in 10.0 mi South 5.8 mph - N/A   Overcast
8:30 AM 52.7 °F - 44.2 °F 73% 29.76 in 10.0 mi South 6.9 mph - N/A   Overcast
8:50 AM 52.7 °F - 44.1 °F 72% 29.75 in 10.0 mi SSE 8.1 mph - N/A   Overcast
9:09 AM 52.7 °F - 43.3 °F 70% 29.76 in 10.0 mi South 6.9 mph - N/A   Mostly Cloudy
9:30 AM 52.7 °F - 43.0 °F 70% 29.74 in 10.0 mi SSE 5.8 mph - N/A   Overcast
9:50 AM 52.7 °F - 42.4 °F 68% 29.73 in 10.0 mi SSE 8.1 mph - N/A   Overcast
10:09 AM 55.0 °F - 43.7 °F 66% 29.72 in 10.0 mi South 6.9 mph - N/A   Overcast
10:30 AM 57.6 °F - 43.9 °F 60% 29.72 in 10.0 mi South 5.8 mph - N/A   Mostly Cloudy
10:49 AM 60.1 °F - 44.2 °F 56% 29.71 in 10.0 mi South 9.2 mph 19.6 mph N/A   Mostly Cloudy
11:09 AM 60.1 °F - 43.3 °F 54% 29.71 in 10.0 mi South 12.7 mph 18.4 mph N/A   Scattered Clouds
11:30 AM 62.8 °F - 44.6 °F 51% 29.70 in 10.0 mi SSW 18.4 mph 24.2 mph N/A   Scattered Clouds
11:49 AM 62.8 °F - 44.1 °F 50% 29.70 in 10.0 mi South 15.0 mph 23.0 mph N/A   Scattered Clouds
12:09 PM 62.8 °F - 44.1 °F 50% 29.70 in 10.0 mi SSW 15.0 mph 25.3 mph N/A   Mostly Cloudy
12:30 PM 64.4 °F - 44.2 °F 48% 29.70 in 10.0 mi South 13.8 mph - N/A   Mostly Cloudy
12:49 PM 63.5 °F - 43.5 °F 48% 29.70 in 10.0 mi SSW 18.4 mph 27.6 mph N/A   Overcast
1:09 PM 62.8 °F - 43.7 °F 50% 29.69 in 10.0 mi SSW 15.0 mph 19.6 mph N/A   Overcast
1:49 PM 62.8 °F - 44.1 °F 50% 29.69 in 10.0 mi SSW 13.8 mph 21.9 mph N/A   Mostly Cloudy
2:09 PM 62.8 °F - 44.1 °F 50% 29.68 in 10.0 mi South 10.4 mph 16.1 mph N/A   Overcast
2:30 PM 62.8 °F - 43.9 °F 50% 29.69 in 10.0 mi SSW 9.2 mph - N/A   Light Drizzle
2:49 PM 62.8 °F - 43.9 °F 50% 29.68 in 10.0 mi South 9.2 mph - N/A   Overcast
3:09 PM 64.0 °F - 44.8 °F 50% 29.66 in 10.0 mi South 11.5 mph - N/A   Overcast
3:30 PM 65.5 °F - 44.4 °F 46% 29.65 in 10.0 mi South 8.1 mph 18.4 mph N/A   Overcast
3:49 PM 65.3 °F - 43.3 °F 45% 29.67 in 10.0 mi SW 13.8 mph 23.0 mph N/A   Overcast
4:09 PM 64.0 °F - 44.2 °F 49% 29.68 in 10.0 mi SW 12.7 mph 19.6 mph N/A   Overcast
4:30 PM 62.8 °F - 43.0 °F 48% 29.68 in 10.0 mi SW 11.5 mph 18.4 mph N/A   Mostly Cloudy
4:49 PM 62.8 °F - 43.3 °F 49% 29.68 in 10.0 mi SW 10.4 mph - N/A   Mostly Cloudy
5:09 PM 62.8 °F - 44.1 °F 50% 29.69 in 10.0 mi WSW 8.1 mph - N/A   Overcast
5:30 PM 62.8 °F - 43.7 °F 50% 29.69 in 10.0 mi WSW 10.4 mph - N/A   Scattered Clouds
5:49 PM 62.8 °F - 43.9 °F 50% 29.70 in 10.0 mi West 10.4 mph 19.6 mph N/A   Scattered Clouds
6:09 PM 60.1 °F - 41.9 °F 51% 29.71 in 10.0 mi West 9.2 mph 16.1 mph N/A   Scattered Clouds
6:30 PM 60.1 °F - 41.9 °F 51% 29.71 in 10.0 mi West 8.1 mph - N/A   Overcast
6:49 PM 59.7 °F - 42.6 °F 53% 29.71 in 10.0 mi West 4.6 mph - N/A   Overcast
7:29 PM 57.6 °F - 41.2 °F 54% 29.72 in 10.0 mi Calm Calm - N/A   Mostly Cloudy
7:49 PM 57.6 °F - 42.1 °F 56% 29.71 in 10.0 mi Calm Calm - N/A   Mostly Cloudy
8:10 PM 52.9 °F - 40.5 °F 63% 29.71 in 10.0 mi Calm Calm - N/A   Mostly Cloudy
8:29 PM 52.7 °F - 42.3 °F 68% 29.72 in 10.0 mi Calm Calm - N/A   Overcast
8:49 PM 52.7 °F - 41.4 °F 65% 29.73 in 10.0 mi Calm Calm - N/A   Scattered Clouds
9:10 PM 50.2 °F - 40.6 °F 70% 29.73 in 10.0 mi Calm Calm - N/A   Clear
9:29 PM 44.6 °F 43.1 °F 38.1 °F 78% 29.74 in 10.0 mi West 3.5 mph - N/A   Clear
9:49 PM 45.0 °F - 37.9 °F 76% 29.74 in 10.0 mi Calm Calm - N/A   Clear
10:10 PM 44.6 °F - 37.6 °F 76% 29.74 in 10.0 mi Calm Calm - N/A   Clear
10:29 PM 42.1 °F - 37.4 °F 83% 29.74 in 10.0 mi Calm Calm - N/A   Clear
10:49 PM 40.5 °F - 35.1 °F 81% 29.75 in 10.0 mi Calm Calm - N/A   Clear
11:10 PM 40.1 °F - 36.5 °F 87% 29.75 in 10.0 mi Calm Calm - N/A   Clear
11:29 PM 40.6 °F 36.7 °F 36.5 °F 85% 29.75 in 10.0 mi West 5.8 mph - N/A   Clear
11:49 PM 46.9 °F - 37.6 °F 70% 29.76 in 10.0 mi WNW 9.2 mph - N/A   Clear